Regional Weather Roundup
Issued by NWS

Home | Current Version | Previous Version | Text Only | Print | Product List | Glossary Off
Versions: 1 2 3 4 5 6 7 8 9 10 11 12 13 14 15 16 17 18 19 20 21 22 23 24 25 26 27 28 29 30 31 32 33 34 35 36 37 38 39 40 41 42 43 44 45 46 47 48 49 50

000
ASUS43 KLMK 241502
RWRKY
KENTUCKY REGIONAL WEATHER ROUNDUP
NATIONAL WEATHER SERVICE LOUISVILLE KY
1100 AM EDT THU JUL 24 2014

NOTE "FAIR" INDICATES FEW OR NO CLOUDS BELOW 12,000 FEET
WITH NO SIGNIFICANT WEATHER AND/OR OBSTRUCTIONS TO VISIBILITY.

KYZ001>023-026-027-061>063-070>075-241600-
WESTERN AND SOUTH CENTRAL KENTUCKY

CITY           SKY/WX    TMP DP  RH WIND       PRES   REMARKS
PADUCAH        SUNNY     71  59  65 N8        30.07S
HENDERSON      MOSUNNY   70  61  73 N9        30.07S
OWENSBORO      MOSUNNY   72  61  68 NE8       30.06S
HOPKINSVILLE   CLOUDY    72  62  71 N3        30.06R
BOWLING GREEN  CLOUDY    72  64  76 NW9       30.04R
GLASGOW        CLOUDY    72  65  79 N7        30.02R
$$

KYZ024-025-028>034-038-045-046-053-241600-
NORTH CENTRAL KENTUCKY

CITY           SKY/WX    TMP DP  RH WIND       PRES   REMARKS
LOUISVILLE/SDF SUNNY     74  55  51 N16       30.05R
LOUISVILLE/LOU SUNNY     73  52  47 NE10      30.05S
FORT KNOX      SUNNY     72  56  57 N10       30.04R
$$

KYZ035>037-039>044-047>052-055>060-089>105-241600-
NORTHEAST KENTUCKY

CITY           SKY/WX    TMP DP  RH WIND       PRES   REMARKS
LEXINGTON      CLOUDY    68  60  75 N13       30.04R
COVINGTON      CLOUDY    67  56  67 N13       30.07R
FRANKFORT      PTSUNNY   70  58  65 N9G17     30.04S
$$

KYZ054-064>069-076>088-106>120-241600-
SOUTHEAST KENTUCKY

CITY           SKY/WX    TMP DP  RH WIND       PRES   REMARKS
JACKSON        LGT RAIN  67  66  97 CALM      30.00R
LONDON         CLOUDY    72  69  90 W5        30.00S
SOMERSET       CLOUDY    70  68  94 N7        30.01R
MIDDLESBORO    PTSUNNY   76  69  79 N3        29.99F
MONTICELLO     CLOUDY    72  71  96 CALM      30.02R FOG
$$




USA.gov is the U.S. government's official web portal to all federal, state and local government web resources and services.